{"data":{"norad_id":65599,"epoch":"2026-05-25T03:59:38.025312Z","epoch_age_seconds":57298,"freshness":"FRESH","line1":"1 65599U 25207H   26145.16641233 -.00000608  00000+0 -38051-4 0  9990","line2":"2 65599  97.4494 213.7520 0002255 160.6769 199.4544 15.05648219 39775","mean_motion":15.05648219,"eccentricity":0.0002255,"inclination_deg":97.4494,"raan_deg":213.752,"arg_perigee_deg":160.6769,"mean_anomaly_deg":199.4544,"bstar":-3.8051e-5,"rev_number":3977,"period_min":95.639870045899,"perigee_km":547.95443119477,"apogee_km":551.07880297608,"semimajor_km":6927.6536170854,"source":"CELESTRAK","updated_at":"2026-05-25T13:38:20.853262Z"}}